Location: Banska Bystrica
(48.7330°N, 19.1500°E)
Time: 20:08:43
(UTC+02:00)

Tiangong 2 - Pass Details

Date: 28 May 2019
Orbit: 376 x 388 km, 42.8° (Epoch: 25 June)

Event Time Altitude Azimuth Distance (km) Brightness Sun altitude
Rises 21:25:02 0° 263° (W) 2,238 5.5 -7.3°
Reaches altitude 10° 21:27:31 10° 243° (WSW) 1,383 4.1 -7.6°
Maximum altitude 21:29:43 18° 198° (SSW) 1,016 2.9 -7.9°
Enters shadow 21:31:49 10° 154° (SSE) 1,355 3.2 -8.1°
